Location: Liptovsk� Osada
(48.9509°N, 19.2651°E)
Time: 00:35:09
(UTC+00:00)

Daily predictions for brighter satellites

Satellite Brightness Start Highest point End
(mag) Time Altitude Azimuth Time Altitude Azimuth Time Altitude Azimuth
CENTAUR R/B 3.9 01:53:25 45° E 01:53:25 45° E 01:59:43 10° ESE
Cosmos 2344 4.1 02:11:18 54° ENE 02:11:18 54° ENE 02:17:51 10° NE
ATLAS 2AS CENTAUR R/B 3.6 02:30:36 47° SE 02:31:35 50° ESE 02:39:11 10° NE
Lacrosse 5 rocket 4.2 02:41:33 17° NE 02:41:33 17° NE 02:42:50 10° ENE
SL-16 R/B 4.1 02:41:08 19° SE 02:43:34 25° ESE 02:48:07 10° NE
CZ-2C R/B 4.3 02:41:48 10° NNE 02:44:07 26° NE 02:44:07 26° NE
Cosmos 1980 Rocket 3.4 02:52:23 37° NNE 02:52:23 37° NNE 02:55:41 10° NNE
Cosmos 1697 Rocket 4.3 02:57:55 25° NNE 02:57:55 25° NNE 03:00:15 10° NNE
Cosmos 962 Rocket 4.4 03:13:00 10° N 03:19:21 88° ENE 03:25:43 10° S
ATLAS 3B R/B 2.5 03:24:25 72° WNW 03:25:10 83° SW 03:32:06 10° SE
COSMOS 2455 3.0 03:31:38 58° NNW 03:31:38 58° NNW 03:37:02 10° NNE
Lacrosse 5 2.5 03:30:41 46° SSE 03:31:21 49° SE 03:36:15 10° ENE
Cosmos 1624 Rocket 4.2 03:30:58 53° N 03:32:01 67° ENE 03:37:11 10° SSE
NOSS 3-2 (C) 4.2 03:32:29 50° SW 03:32:29 50° SW 03:40:09 10° SSE
Cosmos 2263 Rocket 2.7 03:42:30 44° SSW 03:42:30 44° SSW 03:46:35 10° S
SKYMED 2 3.7 03:37:17 10° SSE 03:41:36 71° ENE 03:41:43 71° ENE
STARLINK-65 4.5 03:43:10 43° NE 03:43:10 43° NE 03:46:06 10° ENE
Cosmos 1484 Rocket 4.4 03:38:29 10° NNE 03:40:17 26° NNE 03:40:17 26° NNE
CENTAUR R/B 3.2 03:40:39 49° W 03:42:16 55° WSW 03:50:40 10° SSE
Cosmos 2322 Rocket 2.7 03:38:51 15° S 03:43:28 60° ESE 03:49:05 10° NE
RESURS DK-1 3.8 03:41:24 20° SSE 03:43:40 36° ESE 03:47:30 10° NE
STARLINK-53 4.4 03:44:51 44° NE 03:44:51 44° NE 03:47:51 10° ENE
STARLINK 1044 4.1 03:46:20 52° E 03:46:20 52° E 03:49:27 10° ENE
STARLINK-58 4.4 03:47:32 44° NE 03:47:32 44° NE 03:50:30 10° ENE
SL-8 Rocket 3.8 03:40:38 10° N 03:46:52 86° W 03:53:01 10° S
USA 215 3.3 03:40:50 10° ESE 03:47:20 72° NNE 03:50:01 38° NW
NOSS 3-4 (A) 3.3 03:45:42 50° SW 03:47:28 88° NW 03:53:57 10° NE
NOSS 3-4 (C) 3.3 03:45:46 49° SW 03:47:35 89° NW 03:54:03 10° NE
Cosmos 2056 Rocket 3.5 03:46:17 41° NNW 03:48:17 87° ENE 03:53:42 10° SSE
STARLINK-62 4.3 03:49:12 44° NNE 03:49:12 44° NNE 03:52:14 10° ENE
STARLINK 1031 4.0 03:49:05 54° E 03:49:05 54° E 03:52:12 10° ENE
Meteor 1-11 4.3 03:43:52 10° N 03:49:31 78° ENE 03:55:11 10° SSE
STARLINK-41 4.4 03:50:56 39° NE 03:50:56 39° NE 03:53:37 10° ENE
Cosmos 1844 Rocket 3.5 03:47:34 17° NNW 03:51:42 48° NE 03:57:09 10° SE
STARLINK 1024 3.8 03:52:31 60° E 03:52:31 60° E 03:55:47 10° ENE
STARLINK 4.3 03:54:15 42° NE 03:54:15 42° NE 03:57:02 10° ENE
Cosmos 923 Rocket 4.0 03:55:24 60° WNW 03:55:32 61° WNW 04:00:51 10° NNE
STARLINK-26 4.4 03:58:01 35° NNE 03:58:01 35° NNE 04:00:35 10° ENE
STARLINK 1032 3.5 03:59:27 73° ESE 03:59:27 73° ESE 04:03:00 10° ENE
STARLINK 1009 4.5 04:02:02 30° ENE 04:02:02 30° ENE 04:03:42 10° ENE
STARLINK 1015 4.5 04:02:15 30° ENE 04:02:15 30° ENE 04:03:56 10° ENE
STARLINK 1016 4.5 04:02:28 31° ENE 04:02:28 31° ENE 04:04:08 10° ENE
STARLINK 1008 4.5 04:02:40 31° ENE 04:02:40 31° ENE 04:04:22 10° ENE
Cosmos 2181 Rocket 3.9 03:55:20 10° SSW 04:01:36 80° W 04:08:01 10° N
STARLINK 1025 4.4 04:03:06 31° ENE 04:03:06 31° ENE 04:04:48 10° ENE
STARLINK 1017 4.4 04:03:18 32° ENE 04:03:18 32° ENE 04:05:02 10° ENE
STARLINK 1023 4.4 04:03:31 32° ENE 04:03:31 32° ENE 04:05:15 10° ENE
STARLINK 1007 4.4 04:03:45 32° ENE 04:03:45 32° ENE 04:05:29 10° ENE
STARLINK 1048 4.4 04:03:58 32° ENE 04:03:58 32° ENE 04:05:43 10° ENE
STARLINK 1011 3.4 04:02:56 81° ESE 04:02:56 81° ESE 04:06:38 10° ENE
STARLINK 1049 4.4 04:04:11 32° ENE 04:04:11 32° ENE 04:05:57 10° ENE
STARLINK 1051 4.3 04:04:24 32° ENE 04:04:24 32° ENE 04:06:10 10° ENE
Cosmos 158 Rocket 3.8 04:00:34 20° SSW 04:03:59 86° ESE 04:09:00 10° NNE
STARLINK-34 3.9 04:06:13 50° N 04:06:13 50° N 04:09:57 10° ENE
STARLINK 1036 3.3 04:06:26 86° S 04:06:27 86° SSE 04:10:17 10° ENE
H-2A R/B 4.5 04:05:21 10° N 04:06:10 15° N 04:06:10 15° N
Cosmos 2341 Rocket 4.2 04:05:56 10° NNW 04:11:47 43° W 04:17:35 10° SSW
FENGYUN 3A 3.7 04:06:38 10° NNE 04:12:04 80° ESE 04:17:30 10° SSW
STARLINK 1047 3.2 04:13:26 74° WSW 04:13:44 87° NNW 04:17:34 10° ENE
EXPRESS MD2 2.9 04:16:11 60° ENE 04:16:11 60° ENE 04:18:12 10° E
STARLINK 1037 3.2 04:15:46 69° W 04:16:11 85° NNW 04:20:01 10° ENE
ALOS 2.2 04:11:41 10° NNE 04:16:24 88° W 04:21:04 10° SSW
Okean O Rocket 2.6 04:12:10 10° NNE 04:16:31 49° E 04:20:48 10° S
Cosmos 2058 Rocket 2.9 04:13:58 10° SSW 04:18:19 68° W 04:22:41 10° N
Lacrosse 5 rocket 2.3 04:17:12 31° NNW 04:18:53 44° NNE 04:23:08 10° E
MOS 1-B 4.4 04:13:44 10° NNE 04:19:34 85° ESE 04:25:23 10° SSW
STARLINK-42 3.8 04:19:22 44° NNW 04:19:35 45° N 04:23:08 10° ENE
STARLINK 1059 3.3 04:19:18 62° W 04:19:52 81° NNW 04:23:43 10° ENE
STARLINK-29 4.2 04:20:47 32° SSW 04:20:47 32° SSW 04:23:34 10° SSE
Cosmos 1726 Rocket 3.9 04:21:26 41° WNW 04:21:26 41° WNW 04:25:10 10° N
Cosmos 2228 4.0 04:22:24 30° NNW 04:22:24 30° NNW 04:25:08 10° N
STARLINK-24 3.9 04:20:26 44° NW 04:21:02 48° N 04:24:57 10° ENE
ATLAS 2AS CENTAUR R/B 3.2 04:18:05 27° WSW 04:22:38 58° NW 04:30:27 10° NE
Cosmos 864 Rocket 4.4 04:16:33 10° NNW 04:22:41 63° W 04:28:51 10° S
STARLINK-52 4.1 04:23:23 34° SSW 04:23:23 34° SSW 04:26:21 10° SSE
Cosmos 1867 4.4 04:19:19 17° NNW 04:23:24 48° NE 04:28:39 10° ESE
STARLINK-81 3.9 04:22:44 43° NW 04:23:27 49° N 04:27:22 10° ENE
STARLINK 1057 3.3 04:22:52 56° W 04:23:35 78° NNW 04:27:25 10° ENE
STARLINK-61 4.0 04:22:53 40° NNW 04:23:36 45° N 04:27:26 10° ENE
CZ-2C R/B 3.7 04:20:29 10° N 04:23:30 25° NW 04:23:30 25° NW
Cosmos 2344 4.1 04:21:19 29° WNW 04:24:46 43° NNW 04:33:14 10° NE
STARLINK-54 4.0 04:24:28 41° NW 04:25:16 48° N 04:29:11 10° ENE
STARLINK 1040 3.2 04:25:52 47° NNE 04:25:52 47° NNE 04:28:16 10° ENE
STARLINK-80 3.8 04:24:49 42° NW 04:25:44 54° NNE 04:29:27 10° E
STARLINK-77 4.0 04:25:54 41° NW 04:26:44 48° N 04:30:40 10° ENE
SL-16 R/B 2.2 04:23:05 18° SW 04:27:15 61° WNW 04:32:54 10° NNE
STARLINK 1052 3.3 04:26:26 51° W 04:27:17 75° NNW 04:31:08 10° ENE
Cosmos 2360 Rocket 2.5 04:21:56 10° SSW 04:27:34 68° ESE 04:33:13 10° NNE
USA 32 4.4 04:22:48 10° NNW 04:27:38 38° W 04:32:27 10° SSW
STARLINK-25 4.0 04:27:29 40° NW 04:28:23 48° N 04:32:19 10° ENE
COSMO-SKYMED 1 3.0 04:25:43 10° SSW 04:29:46 38° W 04:30:21 37° WNW
STARLINK-71 4.0 04:29:18 38° NW 04:30:19 47° N 04:34:14 10° ENE
Cosmos 1452 Rocket 3.6 04:25:01 10° NNW 04:30:19 76° ENE 04:35:34 10° SSE
Cosmos 2219 Rocket 4.4 04:25:49 10° SSE 04:30:30 27° ESE 04:35:13 10° NE
STARLINK 1068 3.3 04:30:00 46° W 04:31:00 73° NNW 04:34:51 10° ENE
STARLINK 1014 3.0 04:31:06 55° NNW 04:31:12 55° NNW 04:34:15 10° ENE
STARLINK-79 4.0 04:30:39 37° NW 04:31:42 47° N 04:35:37 10° ENE
Meteor 2-12 Rocket 4.3 04:26:12 10° NNW 04:32:20 81° W 04:38:27 10° S
Cosmos 1300 3.0 04:28:58 10° S 04:32:45 68° E 04:36:34 10° NNE
Cosmos 2218 Rocket 4.2 04:27:18 10° NNW 04:33:25 49° W 04:39:25 10° SSW
STARLINK-78 4.0 04:32:17 36° NW 04:33:26 47° N 04:37:20 10° ENE
PSLV R/B 3.9 04:29:52 10° N 04:33:29 45° WNW 04:34:58 29° SW
Cosmos 1980 Rocket 3.3 04:34:10 23° NW 04:34:41 23° NW 04:39:11 10° N
STARLINK-57 4.0 04:33:59 35° NW 04:35:12 47° N 04:39:07 10° ENE
SJ-12 4.0 04:32:20 10° N 04:36:18 50° WNW 04:40:15 10° SW
Gbstr 26 Del rocket 4.4 04:31:36 23° WSW 04:36:31 86° NNW 04:44:39 10° ENE
STARLINK-49 4.0 04:35:27 34° NW 04:36:44 47° N 04:40:39 10° ENE
STARLINK 1056 4.4 04:33:34 15° SW 04:36:48 49° SE 04:40:49 10° ENE
STARLINK-27 4.0 04:37:01 33° NW 04:38:22 47° N 04:42:16 10° ENE
STARLINK 1060 3.4 04:37:08 38° W 04:38:27 67° NNW 04:42:18 10° ENE
H-2A R/B 4.2 04:35:01 10° NNE 04:38:43 40° E 04:42:23 10° SSE
CZ-4B R/B 3.4 04:33:37 10° NNE 04:39:10 76° ESE 04:44:34 10° S
Cosmos 1697 Rocket 4.3 04:39:39 15° NW 04:39:58 15° NNW 04:43:14 10° N
STARLINK-74 4.0 04:38:37 32° WNW 04:40:02 47° N 04:43:57 10° ENE
Cosmos 2058 3.5 04:37:00 10° N 04:41:12 61° ENE 04:45:22 10° SSE
CZ-4B R/B 4.2 04:37:50 10° N 04:40:24 23° NW 04:40:24 23° NW
STARLINK-39 4.0 04:40:13 31° WNW 04:41:43 46° N 04:45:37 10° ENE
STARLINK 1054 4.3 04:38:18 14° SW 04:41:43 53° SE 04:45:46 10° ENE
STARLINK-33 3.9 04:40:45 32° NW 04:41:49 41° N 04:45:13 10° ENE
STARLINK-64 4.0 04:40:41 31° NW 04:41:55 43° N 04:45:32 10° ENE
Cosmos 1844 3.7 04:36:36 10° NNW 04:42:12 86° ENE 04:47:46 10° SSE
STARLINK 1030 3.4 04:40:43 34° W 04:42:12 65° NNW 04:46:02 10° ENE
Cosmos 1680 Rocket 4.1 04:40:04 24° WSW 04:42:27 35° WNW 04:47:20 10° N
STARLINK 4.1 04:41:49 30° WNW 04:43:23 46° N 04:47:17 10° ENE
STARLINK-66 3.9 04:42:21 31° NW 04:43:29 41° N 04:46:54 10° ENE
STARLINK-55 3.9 04:43:58 30° NW 04:45:11 41° N 04:48:35 10° ENE
STARLINK-69 4.1 04:43:36 29° WNW 04:45:16 46° N 04:49:10 10° ENE
STARLINK 1020 3.5 04:44:20 31° W 04:45:58 63° NNW 04:49:48 10° ENE
STARLINK 1062 4.2 04:43:03 13° SW 04:46:40 56° SSE 04:50:44 10° ENE
STARLINK-21 4.1 04:45:01 28° WNW 04:46:45 46° N 04:50:39 10° ENE
STARLINK-28 3.9 04:45:40 29° NW 04:46:59 41° N 04:50:22 10° ENE
STARLINK-45 4.1 04:46:50 27° WNW 04:48:39 46° N 04:52:33 10° ENE
STARLINK 1034 3.5 04:47:57 29° W 04:49:45 61° NNW 04:53:34 10° ENE
STARLINK 1035 3.4 04:48:24 30° W 04:49:54 57° NNW 04:53:29 10° ENE
STARLINK-70 4.1 04:48:19 26° WNW 04:50:12 46° N 04:54:06 10° ENE
USA 116 4.3 04:46:25 10° S 04:50:28 38° W 04:53:12 16° NW
Cosmos 1934 Rocket 4.5 04:45:31 10° N 04:51:37 63° ENE 04:57:46 10° SSE
STARLINK 1053 4.1 04:47:54 12° SW 04:51:42 60° SSE 04:55:48 10° ENE
STARLINK-76 4.1 04:49:47 25° WNW 04:51:44 46° N 04:55:37 10° ENE
Cosmos 1437 2.6 04:50:24 21° NNW 04:52:11 53° W 04:55:09 10° S
STARLINK 4.1 04:51:23 25° WNW 04:53:23 46° N 04:57:18 10° ENE
Cosmos 2237 4.2 04:48:27 10° SSW 04:54:10 83° WNW 04:59:56 10° NNE
Cosmos 1908 4.2 04:53:51 24° W 04:54:13 25° WNW 04:57:29 10° NNW
STARLINK 1027 3.5 04:52:52 27° W 04:54:33 54° NNW 04:58:07 10° ENE
Cosmos 1420 Rocket 4.1 04:49:39 10° NNW 04:54:50 54° WSW 05:00:00 10° S
STARLINK-32 4.1 04:52:58 24° WNW 04:55:03 46° N 04:58:57 10° ENE
NOAA 6 4.0 04:51:14 10° N 04:56:26 72° WNW 05:01:35 10° SSW
METEOR-M 4.3 04:51:23 10° N 04:56:30 47° WNW 05:01:35 10° SW
STARLINK 1061 4.0 04:52:41 11° SW 04:56:40 64° SSE 05:00:47 10° ENE
STARLINK-40 4.1 04:54:33 23° WNW 04:56:43 46° N 05:00:37 10° ENE
STARLINK 1033 3.6 04:55:15 24° W 04:57:22 58° NNW 05:01:11 10° ENE
Helios 1A Rocket 2.9 04:53:34 10° NNE 04:57:44 85° WNW 05:01:53 10° SSW
STARLINK-44 4.1 04:56:09 22° WNW 04:58:22 46° N 05:02:16 10° ENE
Cosmos 2239 Rocket 4.5 04:52:36 10° N 04:58:56 86° W 05:05:08 10° S
STARLINK 1029 3.3 04:58:38 26° WNW 05:00:00 46° NNW 05:03:04 10° ENE
In-Cosmos 22 Rocket 4.1 04:54:45 10° NNW 05:00:07 89° W 05:05:26 10° S
STARLINK-37 4.1 04:57:50 22° WNW 05:00:09 46° N 05:04:03 10° ENE
STARLINK-43 3.3 04:58:52 23° WNW 05:01:04 73° SSW 05:04:46 10° SE
STARLINK 1067 3.9 04:57:30 10° SW 05:01:37 69° SSE 05:05:45 10° ENE
STARLINK-36 4.1 04:59:19 21° WNW 05:01:42 46° N 05:05:36 10° ENE
SJ-7 4.4 04:57:49 10° N 05:01:59 68° WNW 05:06:10 10° SSW
STARLINK-68 4.1 05:01:07 20° WNW 05:03:35 46° N 05:07:29 10° ENE
COSMOS 2428 3.9 04:58:42 10° S 05:04:06 46° ESE 05:09:35 10° NE
STARLINK-48 3.7 05:02:28 20° WNW 05:05:04 62° NNE 05:08:57 10° E
STARLINK-63 4.1 05:02:36 20° WNW 05:05:08 46° N 05:09:02 10° ENE
Cosmos-2242 4.3 05:01:20 10° SSE 05:05:32 46° E 05:09:44 10° NNE
STARLINK 1058 3.8 05:02:25 10° SW 05:06:33 73° SSE 05:10:41 10° ENE
STARLINK-35 4.1 05:04:05 19° WNW 05:06:40 46° N 05:10:34 10° ENE
Cosmos 1892 2.8 05:03:30 10° N 05:07:20 76° E 05:11:07 10° SSE
CZ-4 R/B 4.4 05:04:19 10° NE 05:07:29 20° E 05:10:38 10° SE
STARLINK-51 4.1 05:05:40 18° WNW 05:08:20 46° N 05:12:14 10° ENE
STARLINK-30 4.1 05:07:17 18° WNW 05:10:01 46° N 05:13:56 10° ENE
SMAP 3.3 05:06:33 10° NNE 05:11:14 76° ESE 05:15:53 10° S
STARLINK 1043 3.7 05:07:22 10° WSW 05:11:31 77° SSE 05:15:40 10° ENE
STARLINK-72 4.1 05:08:52 17° WNW 05:11:41 46° N 05:15:35 10° ENE
PAYLOAD B 4.5 05:06:27 10° N 05:11:51 48° WNW 05:17:11 10° SW
STARLINK-50 4.1 05:10:27 17° WNW 05:13:20 46° N 05:17:14 10° ENE
ADEOS Rocket 2.9 05:08:19 10° S 05:13:45 59° W 05:19:36 10° NNW
Lacrosse 5 2.1 05:09:55 13° W 05:14:22 52° NNW 05:19:21 10° NE
ATLAS 3B R/B 3.9 05:11:43 14° WNW 05:14:58 20° WSW 05:19:40 10° SSW
STARLINK-59 4.1 05:12:08 16° WNW 05:15:06 46° N 05:19:00 10° E
STARLINK 1065 3.7 05:12:20 10° WSW 05:16:29 81° SSE 05:20:38 10° ENE
STARLINK-56 4.1 05:13:38 16° WNW 05:16:40 46° N 05:20:35 10° ENE
COSMOS 2455 4.2 05:14:47 13° WNW 05:18:13 21° NNW 05:22:39 10° NNE
Starlink (trailer) 4.1 05:15:12 15° WNW 05:18:18 46° N 05:22:12 10° E
Cosmos 2278 Rocket 2.9 05:13:35 10° NNW 05:19:10 55° ENE 05:24:42 10° SE
STARLINK-38 4.1 05:16:49 15° WNW 05:20:00 47° N 05:23:54 10° E
Cosmos 1825 3.5 05:17:02 10° N 05:20:38 41° ENE 05:24:12 10° SSE
STARLINK 1063 3.7 05:17:17 10° WSW 05:21:27 86° SSE 05:25:36 10° ENE
STARLINK-65 4.1 05:18:24 14° WNW 05:21:39 47° N 05:25:34 10° E
RESURS DK-1 3.3 05:18:07 10° WSW 05:21:46 29° NW 05:25:26 10° NNE
Cosmos 1408 3.2 05:19:18 10° N 05:23:01 61° E 05:26:40 10° SSE
Cosmos 1812 Rocket 3.7 05:18:53 10° SSW 05:23:09 49° WNW 05:27:28 10° N
STARLINK-53 4.1 05:20:05 14° WNW 05:23:25 47° N 05:27:19 10° E
Cosmos 1174 3.5 05:19:52 10° SSW 05:23:41 85° SE 05:26:56 10° NE
STARLINK-75 3.9 05:20:59 14° WNW 05:24:04 46° N 05:27:42 10° E
Iridium 96 3.9 05:21:49 10° SSW 05:24:04 38° W 05:26:16 10° NNW
STARLINK 1044 3.8 05:21:00 13° W 05:24:17 49° N 05:28:03 10° ENE
IRS-1C Rocket 4.3 05:19:01 10° NNE 05:24:20 80° ESE 05:29:37 10° SSW
STARLINK-58 4.0 05:22:27 13° WNW 05:25:49 47° N 05:29:38 10° E
STARLINK 1064 3.6 05:22:15 10° WSW 05:26:24 90° SSW 05:30:35 10° ENE
STARLINK 1031 3.8 05:23:31 12° W 05:26:50 48° N 05:30:32 10° ENE
STARLINK-62 4.0 05:24:07 12° WNW 05:27:34 47° N 05:31:24 10° E
Cosmos 2322 Rocket 3.0 05:22:58 10° WSW 05:27:54 30° NW 05:32:54 10° NNE
STARLINK-41 3.9 05:25:05 12° WNW 05:28:20 45° N 05:31:56 10° E
BREEZE M DEB (TANK) 3.3 05:25:40 10° W 05:28:39 86° N 05:37:14 10° E
STARLINK 1024 3.8 05:26:58 11° W 05:30:26 47° N 05:34:08 10° ENE
USA 215 3.7 05:24:20 10° SSE 05:30:35 47° SW 05:36:52 10° WNW
STARLINK 1041 3.6 05:27:15 10° WSW 05:31:24 86° NNW 05:35:35 10° ENE
Cosmos 1048 Rocket 4.0 05:26:09 10° SSW 05:31:26 85° WNW 05:36:40 10° NNE
STARLINK 3.9 05:28:22 11° WNW 05:31:44 45° N 05:35:19 10° E
Cosmos 2237 Rocket 4.3 05:27:43 10° SSE 05:32:38 32° ESE 05:37:35 10° NE
STARLINK 1028 3.6 05:32:07 11° WNW 05:34:39 35° N 05:37:24 10° ENE
STARLINK-26 3.4 05:31:21 11° WNW 05:34:41 63° NNE 05:38:09 10° ESE
STARLINK 1021 3.6 05:32:17 11° WNW 05:34:50 35° N 05:37:34 10° ENE
STARLINK 1019 3.6 05:32:31 11° WNW 05:35:03 35° N 05:37:45 10° ENE
STARLINK 1012 3.6 05:32:42 11° WNW 05:35:16 35° N 05:38:00 10° ENE
Cosmos 1844 Rocket 3.5 05:30:27 10° NW 05:35:25 32° WSW 05:40:22 10° SSW
STARLINK 1010 3.6 05:32:56 11° WNW 05:35:30 35° N 05:38:15 10° ENE
STARLINK 1026 3.6 05:33:08 11° WNW 05:35:42 35° N 05:38:27 10° ENE
STARLINK 1013 3.6 05:33:22 11° WNW 05:35:57 35° N 05:38:42 10° ENE
STARLINK 1009 3.6 05:33:34 11° WNW 05:36:11 35° N 05:38:55 10° ENE
STARLINK 1038 3.6 05:32:13 10° WSW 05:36:22 82° NNW 05:40:32 10° ENE
STARLINK 1015 3.6 05:33:48 11° WNW 05:36:24 35° N 05:39:09 10° ENE
STARLINK 1016 3.6 05:34:01 11° WNW 05:36:38 35° N 05:39:22 10° ENE
STARLINK 1008 3.6 05:34:13 11° WNW 05:36:51 35° N 05:39:35 10° ENE
STARLINK 1025 3.6 05:34:38 11° WNW 05:37:17 35° N 05:40:01 10° ENE
STARLINK 1017 3.6 05:34:51 10° WNW 05:37:31 35° N 05:40:16 10° ENE
STARLINK 1032 3.9 05:34:01 10° W 05:37:42 46° N 05:41:24 10° ENE
STARLINK 1023 3.6 05:35:04 10° WNW 05:37:44 35° N 05:40:29 10° ENE
STARLINK 1007 3.6 05:35:17 10° WNW 05:37:58 35° N 05:40:43 10° ENE
STARLINK 1048 3.6 05:35:31 10° WNW 05:38:12 35° N 05:40:57 10° ENE
Meteor 2-1 Rocket 4.2 05:32:41 10° SSW 05:38:14 65° WNW 05:43:45 10° N
STARLINK 1049 3.6 05:35:44 10° WNW 05:38:25 35° N 05:41:11 10° ENE
STARLINK 1051 3.6 05:35:57 10° WNW 05:38:40 35° N 05:41:24 10° ENE
Alouette 2 Rocket 3.9 05:35:23 10° SW 05:38:56 32° WNW 05:42:12 10° N
NOSS 3-4 (A) 4.4 05:33:46 10° W 05:39:13 31° NNW 05:45:06 10° NE
NOSS 3-4 (C) 4.4 05:33:51 10° W 05:39:19 32° NNW 05:45:12 10° NE
STARLINK 1011 3.9 05:37:40 10° W 05:41:21 46° N 05:45:02 10° ENE
STARLINK 1046 3.6 05:37:12 10° WSW 05:41:21 78° NNW 05:45:31 10° ENE
Cosmos 494 Rocket 4.4 05:36:56 10° SSW 05:42:03 71° ESE 05:47:11 10° NNE
STARLINK 1036 3.9 05:41:20 10° W 05:45:01 45° N 05:48:42 10° ENE
STARLINK-34 4.0 05:41:25 10° WNW 05:45:17 50° N 05:49:08 10° E
STARLINK 1039 3.6 05:42:12 10° WSW 05:46:21 75° NNW 05:50:30 10° ENE
CZ-2C R/B 3.7 05:41:55 10° S 05:46:25 63° WSW 05:50:52 10° NNW
Meteor 2-10 Rocket 4.0 05:42:06 10° S 05:47:52 77° E 05:53:27 10° NNE
